Regional Weather Roundup
Issued by NWS

Home | Current Version | Previous Version | Graphics & Text | Print | Product List | Glossary On
Versions: 1 2 3 4 5 6 7 8 9 10 11 12 13 14 15 16 17 18 19 20 21 22 23 24 25 26 27 28 29 30 31 32 33 34 35 36 37 38 39 40 41 42 43 44 45 46 47 48 49 50
000
ASUS43 KMPX 200601
RWRMN
WEATHER ROUNDUP FOR MINNESOTA
NATIONAL WEATHER SERVICE TWIN CITIES/CHANHASSEN MN
1200 AM CST TUE FEB 20 2018


NOTE: "FAIR" INDICATES FEW OR NO CLOUDS BELOW 12,000 FEET WITH NO
SIGNIFICANT WEATHER AND/OR OBSTRUCTIONS TO VISIBILITY. N/A MEANS
CURRENT SKY AND/OR WEATHER CONDITIONS ARE NOT AVAILABLE.

MNZ060>063-068>070-200700-
   Twin Cities Metro

CITY           SKY/WX    TMP DP  RH WIND       PRES   REMARKS
TWIN CITIES    FRZ DRZL  21  19  92 E12G18    29.88F WCI   9
6HR MIN TEMP:  20; 6HR MAX TEMP:  22; 6HR PCP: TRACE;

ST PAUL        CLOUDY    21  18  88 NE9       29.89F WCI  11
CRYSTAL        CLOUDY    19  15  84 NE7       29.87F WCI  10
BLAINE         CLOUDY    19  18  93 NE8       29.87F FOG     WCI   9
LAKEVILLE      CLOUDY    19  19 100 NE8       29.86F WCI   9
EDEN PRAIRIE   CLOUDY    20  17  88 NE6       29.88S WCI  12
6HR MIN TEMP:  19; 6HR MAX TEMP:  21; 6HR PCP: TRACE;

SOUTH ST PAUL  CLOUDY    21  19  89 NE8       29.88F WCI  12
LAKE ELMO      CLOUDY    21  19  93 NE8       29.89F WCI  12
$$
MNZ001>005-007-008-013>017-022>024-027-028-200700-
   Northwest Minnesota

CITY           SKY/WX    TMP DP  RH WIND       PRES   REMARKS
BEMIDJI        LGT SNOW   7   2  80 N9        30.04F WCI  -6
HALLOCK        MOCLDY     5  -6  61 N7        30.19R WCI  -7
WARROAD        FAIR       7  -4  61 NE9       30.17S WCI  -7
THIEF RVR FALL FLURRIES   6  -2  69 NE10      30.14  WCI  -9
CROOKSTON      LGT SNOW   5   1  85 N10       30.15F WCI -10
FOSSTON        LGT SNOW   3  -2  78 N13       30.10S WCI -14
DETROIT LAKES  LGT SNOW  10   5  79 NE8       30.03F WCI  -1
MOORHEAD       LGT SNOW   5   1  85 N18       30.08F VSB 3/4 WCI -15
PARK RAPIDS    CLOUDY     9   3  77 N13       30.01R WCI  -7
MAHNOMEN       FLURRIES   6   1  80 N14       30.09R WCI -11
$$
MNZ006-009>011-018-025>026-200700-
   North Central Minnesota

CITY           SKY/WX    TMP DP  RH WIND       PRES   REMARKS
BAUDETTE       CLOUDY     6  -3  66 N9        30.13R WCI  -8
FLAG ISLAND    CLOUDY     5  -8  56 NE9       30.17F WCI  -9
INTL FALLS     LGT SNOW   7  -1  70 NE9       30.09F WCI  -7
6HR MIN TEMP:   7; 6HR MAX TEMP:  10; 6HR PCP: TRACE;

WASKISH        FLURRIES   9   1  72 NE7       30.11R WCI  -3
BIG FORK       FLURRIES   9   3  78 N6        30.03S WCI  -1
LONGVILLE      LGT SNOW   9   5  85 N8        30.00R WCI  -4
GRAND RAPIDS   LGT SNOW   8   5  87 N9        30.00F FOG     WCI  -5
CRANE LAKE     FLURRIES   5   1  85 N5        30.09F WCI  -4
ORR            FLURRIES   7   0  72 E3        30.02F
COOK             N/A      7   1  78 NE7       30.03F WCI  -5
WALKER         FLURRIES   8   2  78 N7        30.02R WCI  -4
$$
MNZ012-019>021-037-200700-
   Northeast Minnesota

CITY           SKY/WX    TMP DP  RH WIND       PRES   REMARKS
DULUTH         LGT SNOW  14  10  84 E17       29.95F WCI  -3
6HR MIN TEMP:  12; 6HR MAX TEMP:  14; 6HR PCP:  0.04;

ELY            CLOUDY     3   0  85 NE8       30.03F WCI -10
HIBBING        CLOUDY     7   3  84 NE8       29.99F FOG     WCI  -6
EVELETH        CLOUDY   N/A N/A N/A NE8       30.00F
DULUTH HARBOR  LGT SNOW  21  18  86 E28G39    30.02S WCI   3
TWO HARBORS    LGT SNOW  16   9  73 NE13G20   29.98F WCI   2
G MARAIS ARPRT CLOUDY     3  -4  72 N9        29.98F WCI -11
$$
MNZ029>031-032-039>041-046>048-054>057-064-200700-
   West Central Minnesota

CITY           SKY/WX    TMP DP  RH WIND       PRES   REMARKS
FERGUS FALLS   LGT SNOW  10   5  79 NE10G16   30.00F WCI  -3
WHEATON        LGT SNOW   7   3  85 NW13      30.04F VSB 1   WCI  -9
MORRIS         LGT SNOW  12   9  85 N13       29.97F WCI  -3
ALEXANDRIA     CLOUDY    12   7  80 N13       29.94R HAZE    WCI  -3
ELBOW LAKE     FLURRIES  11   8  87 NE13      29.98F WCI  -4
WADENA         FLURRIES   9   5  85 N10       29.99R WCI  -6
GLENWOOD       FLURRIES  12   9  85 N10       29.95S WCI  -1
APPLETON       FLURRIES  16   9  73 N12       29.99R WCI   3
MADISON        LGT SNOW  14  10  85 NW16      29.98F WCI  -2
WILLMAR        CLOUDY    16  10  79 N6        29.95S WCI   7
$$
MNZ033>034-036-042>043-049>051-058-059-200700-
   Central Minnesota

CITY           SKY/WX    TMP DP  RH WIND       PRES   REMARKS
ST CLOUD       CLOUDY    14  11  87 NE9       29.90F WCI   2
6HR MIN TEMP:  14; 6HR MAX TEMP:  16; 6HR PCP: TRACE;

SAUK CENTRE    CLOUDY    12   7  79 NE7       29.94R WCI   2
PAYNESVILLE    FLURRIES  14  12  91 N8        29.93R WCI   3
PINE RIVER     FLURRIES   9   5  85 N8        30.01R WCI  -4
BRAINERD       CLOUDY    12   4  70 NE10      29.97R WCI  -1
STAPLES        LGT SNOW   9   7  92 N8        29.97R WCI  -4
LONG PRAIRIE   CLOUDY    12   7  79 N9        29.96R WCI   0
LITTLE FALLS   CLOUDY    14   5  67 N3        29.95R
LITCHFIELD     CLOUDY    16  14  93 N8        29.91R WCI   5
BUFFALO        CLOUDY    18  14  85 NE13G18   29.90F WCI   5
MAPLE LAKE     CLOUDY    19  15  86 NE10G16   29.91R WCI   7
HUTCHINSON     CLOUDY    19  16  88 N7        29.90R WCI  10
$$
MNZ037-044-045-052-053-200700-
   East Central Minnesota

CITY           SKY/WX    TMP DP  RH WIND       PRES   REMARKS
PRINCETON      CLOUDY    19  16  86 NE9G20    29.89F WCI   9
MORA           CLOUDY    14  12  92 NE5       29.93F FOG     WCI   6
CAMBRIDGE      CLOUDY    19  12  73 NE13      29.89F WCI   7
RUSH CITY      CLOUDY    18  15  88 NE12G18   29.91F WCI   5
MOOSE LAKE     FLURRIES  14  12  92 NE7       29.93F WCI   4
HINCKLEY       CLOUDY    19  18  93 NE9G18    29.92F WCI   9
CLOQUET        LGT SNOW  16  10  79 NE10G16   29.95F WCI   3
MCGREGOR       CLOUDY    12   9  85 NE10      29.93F WCI  -1
$$
MNZ071>073-080-081-089-090-097-098-200700-
   Southwest Minnesota

CITY           SKY/WX    TMP DP  RH WIND       PRES   REMARKS
MONTEVIDEO     FLURRIES  14  10  85 N9        29.96S WCI   2
GRANITE FALLS  FLURRIES  16  12  84 N9        29.95F WCI   5
CANBY          LGT SNOW  12   9  88 W10       29.98S WCI  -1
MARSHALL       FLURRIES  13  10  88 N13       29.92F WCI  -2
REDWOOD FALLS  CLOUDY    16  14  92 N6        29.92R WCI   7
OLIVIA         CLOUDY    18  14  86 N9        29.93R WCI   6
PIPESTONE      FLURRIES  10   9  92 NE14      29.87F WCI  -5
WINDOM         CLOUDY    18   5  57 CALM      29.83F HAZE
WORTHINGTON    LGT SNOW  15  13  91 N12       29.86F FOG     WCI   2
JACKSON        CLOUDY    18  16  93 VRB8      29.85F FOG     WCI   7
TRACY          LGT SNOW  15  13  94 N10       29.88F WCI   2
SLAYTON        CLOUDY    13  12  93 N12       29.87F FOG     WCI   0
$$
MNZ065>067-074>077-082>085-091>093-200700-
   South Central Minnesota

CITY           SKY/WX    TMP DP  RH WIND       PRES   REMARKS
MANKATO        CLOUDY    21  19  92 NE10      29.85F FOG     WCI  10
NEW ULM        CLOUDY    18  16  93 N5        29.90R WCI  11
ST JAMES       CLOUDY    18  18 100 NW7       29.89R WCI   8
FAIRMONT       CLOUDY    19  18  95 N14       29.84F FOG     WCI   6
GLENCOE        CLOUDY    19  17  89 NE8       29.88R WCI   9
FARIBAULT      CLOUDY    19  19 100 N5        29.85S FOG     WCI  13
OWATONNA       CLOUDY    21  19  93 N6        29.82F FOG     WCI  14
WASECA         CLOUDY    21  19  93 NE7       29.82F FOG     WCI  13
ALBERT LEA     CLOUDY    23  21  93 NE6       29.80F WCI  16
$$
MNZ078>079-086>088-094>096-200700-
   Southeast Minnesota

CITY           SKY/WX    TMP DP  RH WIND       PRES   REMARKS
ROCHESTER      LGT SNOW  24  24 100 N10       29.80S FOG     WCI  14
6HR MIN TEMP:  24; 6HR MAX TEMP:  26; 6HR PCP: TRACE;

RED WING       CLOUDY    23  18  80 E6        29.86F HAZE    WCI  16
STANTON        CLOUDY    22  20  92 NE7       29.85S WCI  14
DODGE CENTER   CLOUDY    21  21 100 N8        29.81S FOG     WCI  12
WINONA         CLOUDY    30  28  93 N6        29.82F WCI  24
AUSTIN         CLOUDY    25  23  93 N6        29.80F FOG     WCI  18
PRESTON        FOG       27  26  96 N6        29.79S VSB 1   WCI  21
$$
ABBREVIATIONS USED IN REMARKS
   TC - TEMPERATURES IN CELSIUS
  WCI - WIND CHILL INDEX
   HX - HEAT INDEX
  VSB - VISIBILITY
$$




USA.gov is the U.S. government's official web portal to all federal, state and local government web resources and services.